Location: ????????
(55.3939°N, 37.4780°E)
Time: 05:32:42
(UTC+00:00)

Meteor 2-21 - Pass Details

Date: 14 April 2026
Orbit: 934 x 965 km, 82.5° (Epoch: 10 May)

Event Time Altitude Azimuth Distance (km) Brightness Sun altitude
Rises 17:53:41 0° 348° (NNW) 3,624 8.3 -11.0°
Reaches altitude 10° 17:56:11 10° 350° (N) 2,679 7.5 -11.3°
Maximum altitude 18:02:20 76° 77° (ENE) 984 4.4 -12.0°
Enters shadow 18:08:23 10° 163° (SSE) 2,649 6.3 -12.6°
